Terug naar catalogus

SL-14 DEB

ActiefPO
NORAD 19646·DEBRIS·🇷🇺 Russia

Gelanceerd Oct 26, 1978 vanaf Plesetsk Cosmodrome

Loading…

Volgende Passages (komende 24 uur)

TLE

VersSource: Space-Track

Epoch: Sep 14, 2026, 03:56 UTC

1 19646U 78100AM  26257.16448242  .00005272  00000-0  10898-1 0  9998
2 19646  82.1246 204.2267 0058037 164.8289 259.4572 13.31554569428555

Volg SL-14 DEB in realtime met AllMySat

Download on the App Store